Weather in Birakan

Russia / Jewish Autonomous Oblast     48°59′38″N   131°43′17″E
temp.,
°C
wind,
m/s
gust,
m/s
humid.,
%
clouds,
%
prec.,
mm/h
press.,
hPa
HPBL,
m
28 february, sun
sun2801:00−14ene1297100 1.6 101691
04:00−15nne1197100 2.1 101523
07:00−15w1296100 0.1 101822
10:00−12wnw4107796 0.1 1020645
13:00−11nw51068100 0.0 1022774
16:00−10nw6116383 0.0 10221101
19:00−15wnw411810 0.0 1025586
22:00−19nw413862 0.0 1027762
1 march, mon
mon101:00−20wnw413850 0.0 1028702
04:00−22wnw414820 0.0 1031723
07:00−24w311820 0.0 1032308
10:00−21wnw39700 0.0 1033497
13:00−16wnw510600 0.0 10321370
16:00−15wnw5106541 0.0 10301401
19:00−19wnw368467 0.0 1030128
22:00−24wnw229333 0.0 103220
2 march, tue
tue201:00−26wnw12910 0.0 103219
04:00−27wnw11900 0.0 103219
07:00−28w11900 0.0 103219
10:00−22w12790 0.0 1031188
13:00−15w25660 0.0 10301185
16:00−13wnw466550 0.1 10281441
19:00−18w128687 0.0 102820
22:00−22nne119143 0.0 102920
3 march, wed
wed301:00−22ne119468 0.0 102820
04:00−21e119884 0.1 102720
07:00−22e12100100 0.0 102520
10:00−19e2493100 0.1 1023274
13:00−15ese3581100 0.3 1020584
16:00−14ese3582100 0.3 1017653
19:00−14ese2596100 0.9 1015349
22:00−16ene2397100 1.7 1014139
4 march, thu
thu401:00−17ne1197100 0.1 101229
04:00−18nnw0197100 0.2 101220
07:00−18w119796 0.0 101220
10:00−13wsw118998 0.1 1012154
13:00−5ssw1380100 0.0 1010613
16:00−3s1291100 0.6 1009335
19:00−7wnw41087100 1.9 1011572
22:00−15wnw378986 1.9 1016180